TimeMST,TemperatureF,Dew PointF,Humidity,Sea Level PressureIn,VisibilityMPH,Wind Direction,Wind SpeedMPH,Gust SpeedMPH,PrecipitationIn,Events,Conditions,WindDirDegrees,DateUTC
12:06 AM,10.4,5.0,79,30.21,1.0,West,3.5,-,N/A,,Haze,280,2013-01-04 07:06:00
12:14 AM,10.4,5.0,79,30.20,1.8,NW,3.5,-,N/A,,Haze,310,2013-01-04 07:14:00
12:21 AM,10.4,6.8,85,30.20,3.0,WNW,3.5,-,N/A,,Haze,290,2013-01-04 07:21:00
12:53 AM,15.1,10.0,80,30.34,10.0,WNW,5.8,-,N/A,,Clear,300,2013-01-04 07:53:00
1:53 AM,12.0,7.0,80,30.33,6.0,NNW,5.8,-,N/A,,Haze,330,2013-01-04 08:53:00
2:04 AM,8.6,5.0,85,30.19,1.8,NW,4.6,-,N/A,,Partly Cloudy,310,2013-01-04 09:04:00
2:17 AM,6.8,1.4,79,30.19,3.0,West,6.9,-,N/A,,Haze,280,2013-01-04 09:17:00
2:53 AM,5.0,-0.0,80,30.38,6.0,WNW,5.8,-,N/A,,Haze,290,2013-01-04 09:53:00
3:11 AM,6.8,-0.4,72,30.18,1.8,WNW,4.6,-,N/A,,Haze,300,2013-01-04 10:11:00
3:26 AM,5.0,1.4,85,30.18,0.8,NW,4.6,-,N/A,,Mist,310,2013-01-04 10:26:00
3:39 AM,5.0,-0.4,78,30.18,0.2,NW,6.9,-,N/A,,Haze,320,2013-01-04 10:39:00
3:45 AM,8.6,3.2,79,30.17,1.0,NW,6.9,-,N/A,,Haze,320,2013-01-04 10:45:00
3:48 AM,8.6,3.2,79,30.17,2.0,NW,5.8,-,N/A,,Haze,320,2013-01-04 10:48:00
3:53 AM,8.1,3.0,80,30.35,1.8,NW,5.8,-,N/A,,Haze,320,2013-01-04 10:53:00
4:09 AM,8.6,3.2,79,30.17,3.0,NW,6.9,-,N/A,,Haze,320,2013-01-04 11:09:00
4:13 AM,8.6,3.2,79,30.17,1.5,NW,6.9,-,N/A,,Haze,310,2013-01-04 11:13:00
4:25 AM,8.6,3.2,79,30.17,3.0,NW,6.9,-,N/A,,Haze,320,2013-01-04 11:25:00
4:53 AM,8.1,3.0,80,30.37,8.0,WNW,6.9,-,N/A,,Clear,300,2013-01-04 11:53:00
5:48 AM,8.6,3.2,79,30.17,2.0,WNW,11.5,-,N/A,,Haze,290,2013-01-04 12:48:00
5:50 AM,8.6,3.2,79,30.17,1.0,WNW,11.5,-,N/A,,Haze,290,2013-01-04 12:50:00
5:53 AM,8.1,3.9,83,30.38,0.5,WNW,10.4,-,N/A,Fog,Light Freezing Fog,300,2013-01-04 12:53:00
6:02 AM,10.4,6.8,85,30.16,0.2,WNW,11.5,-,N/A,Fog,Light Freezing Fog,290,2013-01-04 13:02:00
6:53 AM,5.0,-0.0,80,30.42,0.5,WNW,9.2,-,N/A,,Haze,290,2013-01-04 13:53:00
7:16 AM,1.4,-2.2,85,30.17,0.2,WNW,9.2,-,N/A,Fog,Light Freezing Fog,300,2013-01-04 14:16:00
7:28 AM,1.4,-2.2,85,-9999,1.0,WNW,10.4,-,N/A,,Mist,300,2013-01-04 14:28:00
7:34 AM,1.4,-4.0,78,30.17,3.0,WNW,10.4,-,N/A,,Haze,300,2013-01-04 14:34:00
7:44 AM,1.4,-4.0,78,30.17,6.0,NW,9.2,-,N/A,,Haze,310,2013-01-04 14:44:00
7:53 AM,1.9,-2.9,80,30.44,6.0,WNW,9.2,-,N/A,,Haze,300,2013-01-04 14:53:00
8:07 AM,3.2,-2.2,78,30.17,2.5,WNW,11.5,-,N/A,,Haze,300,2013-01-04 15:07:00
8:13 AM,3.2,-0.4,85,30.17,1.2,WNW,11.5,-,N/A,,Haze,300,2013-01-04 15:13:00
8:29 AM,6.8,1.4,79,30.18,2.0,WNW,9.2,-,N/A,,Haze,300,2013-01-04 15:29:00
8:37 AM,6.8,1.4,79,30.18,6.0,WNW,10.4,-,N/A,,Haze,300,2013-01-04 15:37:00
8:53 AM,12.0,5.0,73,30.39,7.0,WNW,10.4,-,N/A,,Clear,290,2013-01-04 15:53:00
9:53 AM,16.0,9.0,74,30.36,10.0,WNW,11.5,-,N/A,,Clear,290,2013-01-04 16:53:00
10:53 AM,17.1,10.0,74,30.34,10.0,WNW,16.1,-,N/A,,Partly Cloudy,300,2013-01-04 17:53:00
11:53 AM,19.9,8.1,60,30.30,10.0,WNW,16.1,-,N/A,,Clear,290,2013-01-04 18:53:00
12:53 PM,21.9,8.1,55,30.24,10.0,NW,15.0,-,N/A,,Mostly Cloudy,310,2013-01-04 19:53:00
1:53 PM,23.0,5.0,46,30.22,10.0,NW,18.4,-,N/A,,Scattered Clouds,310,2013-01-04 20:53:00
2:53 PM,27.0,3.9,37,30.23,10.0,WNW,18.4,-,N/A,,Clear,300,2013-01-04 21:53:00
3:53 PM,28.0,3.0,34,30.21,10.0,WNW,19.6,25.3,N/A,,Clear,300,2013-01-04 22:53:00
4:53 PM,21.9,3.0,44,30.23,10.0,WNW,18.4,-,N/A,,Clear,300,2013-01-04 23:53:00
5:53 PM,16.0,1.9,54,30.28,10.0,WNW,15.0,-,N/A,,Clear,290,2013-01-05 00:53:00
6:53 PM,16.0,1.9,54,30.29,10.0,WNW,17.3,-,N/A,,Clear,300,2013-01-05 01:53:00
7:53 PM,16.0,1.9,54,30.31,10.0,NW,21.9,-,N/A,,Clear,310,2013-01-05 02:53:00
8:53 PM,16.0,-0.0,49,30.27,10.0,WNW,19.6,-,N/A,,Clear,300,2013-01-05 03:53:00
9:53 PM,18.0,-0.0,45,30.24,10.0,WNW,23.0,-,N/A,,Clear,290,2013-01-05 04:53:00
10:53 PM,17.1,1.0,50,30.24,10.0,WNW,23.0,-,N/A,,Clear,290,2013-01-05 05:53:00
11:53 PM,15.1,1.0,54,30.23,10.0,WNW,21.9,-,N/A,,Clear,290,2013-01-05 06:53:00